Regional Weather Roundup
Issued by NWS Newport/Morehead, NC

Current Version | Previous Version | Text Only | Print | Product List | Glossary On
Versions: 1 2 3 4 5 6 7 8 9 10 11 12 13 14 15 16 17 18 19 20 21 22 23 24 25 26 27 28 29 30 31 32 33 34 35 36 37 38 39 40 41 42 43 44 45 46 47 48 49 50
000
ASUS42 KMHX 140213
RWRMHX
WEATHER ROUNDUP FOR EASTERN NORTH CAROLINA
NATIONAL WEATHER SERVICE NEWPORT/MOREHEAD CITY NC
900 PM EST WED DEC 13 2017

NOTE: "FAIR" INDICATES FEW OR NO CLOUDS BELOW 12,000 FEET
WITH NO SIGNIFICANT WEATHER AND/OR OBSTRUCTIONS TO VISIBILITY

NCZ015>017-031-032-045>047-102-103-140300-
NORTH COAST

CITY           SKY/WX    TMP DP  RH WIND       PRES   REMARKS
EDENTON        CLEAR     38  20  48 S13       29.83F
ELIZABETH CITY PTCLDY    36  21  54 S8        29.81F
KITTY HAWK     CLEAR     35  19  51 CALM      29.83F
MANTEO         CLEAR     37  21  52 SW13      29.85F

$$

NCZ045>047-081-094-103-104-140300-
CENTRAL COAST

CITY           SKY/WX    TMP DP  RH WIND       PRES   REMARKS
FRISCO         CLEAR     40  22  48 W7        29.87F

$$

NCZ095-097-098-100-101-140300-
SOUTHERN COAST

CITY           SKY/WX    TMP DP  RH WIND       PRES   REMARKS
BEAUFORT       CLEAR     45  30  55 SW15      29.86F
CEDAR ISLAND   NOT AVBL
JACKSONVILLE   CLEAR     40  21  46 S8        29.84F
PINEY ISLAND     N/A    N/A N/A N/A S6        29.86F
WILMINGTON     CLEAR     36  27  69 S5        29.88F


$$

NCZ011>013-027>030-043-044-078>080-089-090>093-098-140300-
COASTAL PLAIN

CITY           SKY/WX    TMP DP  RH WIND       PRES   REMARKS
AHOSKIE        CLEAR     32  14  47 S5        29.81S
CLINTON        CLEAR     38  20  49 S3        29.85R
ELIZABETHTOWN  NOT AVBL
GOLDSBORO      CLEAR     37  16  42 S7        29.81S
GREENVILLE     CLEAR     34  18  51 S7        29.85F
HAVELOCK       CLEAR     32  32 100 S6        29.85F
KENANSVILLE    CLEAR     36  19  51 CALM      29.85F
KINSTON        CLEAR     36  18  48 S8        29.85F
NEW BERN       CLEAR     35  19  52 S7        29.85F
RICHLANDS      CLEAR     33  22  63 SW6       29.87F
ROCKY MOUNT    CLEAR     36  17  46 S7        29.79F
WASHINGTON     CLEAR     35  15  44 S6        29.84F
WHITEVILLE     CLEAR     38  21  51 S6        29.87F

$$

AMZ130-135-150-152-154-156-158-170-250-252-270-ANZ085-086-088-633-658-670-140300-
MARINE OBSERVATIONS

STATION/POSITION TIME  TEMP    WIND        PRES    WAVE   SWELL
                       AIR SEA DIR/SP/G            HT/PER HT/PER
                 (UTC) (F)     (DEG/KT/KT) (MB)    (FT/S) (FT/S)
CHESAPEAKE LIGHT NOT AVBL
64 E VA BEACH    0150   42 58  240/ 17/ 21 1010.0    4/ 5   2/ 8
DUCK             0142   39 53  200/ 10/ 15 1009.6
2 E DUCK         0130      55                N/A     2/ 2
OREGON INLET     0142   39 44  210/ 12/ 14 1010.8
13E OREGON INLT  0148      56                N/A     4/ 8   2/ 6
HATTERAS CG      0142   42 49  250/ 10/ 17 1011.3
DIAMOND BUOY     0200   50 74  230/ 12/ 16 1011.2
CAPE LOOKOUT     0200          210/ 12/ 15 1011.5
BEAUFORT LAB     0142   46 50  210/  8/ 11 1011.2
30 SE NEW RVR IN 0108   50 63  220/ 12/ 17 1012.6
30 SE NEW RVR IN 0200      63                N/A     3/ 7
27 SE WRIGHTSVLE 0108   50 64  220/ 16/ 21 1012.9
5 SE WRIGHTSVLE  0108   48 57  240/ 14/ 19 1012.3
225 S CAPE HAT   0150   60 74  250/ 12/ 17 1014.3    9/ 9   8/ 9
41 SE CHARLESTON 0150      73  240/ 17/ 23 1013.4    3/ 4   2/ 9

$$




USA.gov is the U.S. government's official web portal to all federal, state and local government web resources and services.